[[{"header":{"parameterUnit":"m.s-1","parameterCategory":1,"la1":30.2991,"la2":30.254,"lo1":-89.0895,"lo2":-89.0444,"dy":0.0017,"dx":0.0017,"nx":28,"ny":28,"refTime":"2024-06-29T09:00:00:Z","depth":0,"parameterNumber":2,"parameterNumberName":"U-component_of_WINDS"},"data":[0,0,0,0,0,0,0,0,0,0,0,0,0,0,0,0,0,0,0,0,0,0,0,0,0,0,0,0,0,0,0,0,0,0,0,0,0,0,0,0,0,0,0,0,0,0,0,0,0,0,0,0,0,0,0,0,0,0,4.5836,4.5838,0,4.6027,4.6029,4.6031,4.6013,4.601,4.6007,4.6004,4.6201,4.6209,4.6217,0,0,0,0,0,0,0,0,0,0,0,0,0,4.5459,4.5466,4.5836,4.5838,4.5841,4.6026,4.6029,4.6031,4.6013,4.6009,4.6006,4.6002,4.6198,4.6208,4.6217,0,0,0,0,0,0,0,0,0,0,0,0,0,4.5634,4.5468,4.5835,4.5854,4.5857,4.6026,4.6029,4.6032,4.6014,4.6009,4.6005,4.6001,4.6195,4.6207,4.6219,4.6382,0,0,4.6255,4.6261,0,0,0,0,0,0,0,0,4.5624,4.5647,4.5849,4.5853,4.5857,4.5991,4.5968,4.6149,4.6015,4.5954,4.6004,4.5999,4.6135,4.6152,4.6197,4.6391,4.6399,4.6256,4.6264,4.6269,4.6272,0,0,0,0,0,0,0,4.5612,4.5639,4.5911,4.5852,4.5857,4.5854,4.5873,4.6002,4.6067,4.5959,4.5959,4.5981,4.6136,4.6186,4.6202,4.6402,4.6256,4.6267,4.6274,4.6279,4.674,4.6745,0,0,0,0,0,0,4.5595,4.5629,4.5905,4.5917,4.5727,4.5864,4.5886,4.5953,4.6066,4.6079,4.5985,4.598,4.6167,4.6188,4.6208,4.6406,4.6269,4.628,4.6287,4.6735,4.6742,4.6747,0,0,0,0,0,0,4.5587,4.562,4.5898,4.5773,4.5808,4.5875,4.595,4.5959,4.6008,4.6085,4.6097,4.6023,4.6165,4.6192,4.6339,4.6413,4.6285,4.6296,4.6729,4.6737,4.6744,4.6804,0,0,0,0,0,0,4.5576,4.5617,4.5678,4.5775,4.5815,4.6024,4.5955,4.5966,4.6028,4.6023,4.6124,4.6136,4.6163,4.6321,4.6351,4.6427,4.6306,4.6723,4.6733,4.6742,4.6795,4.6812,4.6827,0,0,0,0,0,4.5563,4.5688,4.5682,4.5715,4.5893,4.6028,4.6051,4.6079,4.6034,4.6097,4.6147,4.6133,4.6401,4.6336,4.637,4.6451,4.6718,4.673,4.6741,4.6788,4.6809,4.6827,0,0,0,0,0,0,4.5599,4.5701,4.5695,4.5855,4.5933,4.6025,4.6105,4.61,4.6193,4.6184,4.6216,4.6239,4.6387,4.6434,4.636,4.6615,4.6554,4.6572,4.6578,4.6599,4.6614,4.6599,4.6316,0,0,0,0,0,4.5625,4.5726,4.581,4.5943,4.5982,4.6037,4.6097,4.6112,4.6194,4.6227,4.6288,4.6369,4.6471,4.6538,4.6637,4.6803,4.6825,4.6876,4.6892,4.6904,4.6919,4.7011,4.7035,4.6784,4.6784,4.6784,0,0,4.5681,4.5749,4.5811,4.5952,4.6014,4.6118,4.6065,4.6177,4.6254,4.6244,4.6386,4.6434,4.6527,4.6685,4.6757,4.6729,4.6994,4.6919,4.6928,4.6937,4.7025,4.7049,4.707,4.6792,4.6791,4.6789,0,0,4.5835,4.5897,4.6015,4.6079,4.6174,4.621,4.6238,4.6332,4.6363,4.6506,4.6501,4.6595,4.677,4.6837,4.6893,4.7076,4.7066,4.7108,4.7189,4.7279,4.7298,4.7316,4.738,4.7403,4.7123,4.7123,4.7123,0,4.5892,4.6048,4.6076,4.6189,4.6252,4.6248,4.6368,4.6429,4.6551,4.6595,4.6562,4.6783,4.6845,4.7018,4.7063,4.7109,4.7143,4.7095,4.7293,4.7311,4.7328,4.739,4.7414,4.7127,4.7127,4.7126,4.7126,0,4.6113,4.6221,4.6305,4.6423,4.6496,4.6612,4.6658,4.6729,4.6738,4.6778,4.6925,4.7,4.7114,4.7157,4.7168,4.7333,4.7312,4.7286,4.7224,4.7355,4.7414,4.7438,4.7133,4.7132,4.7131,4.713,0,0,4.6292,4.6426,4.6456,4.651,4.6616,4.6701,4.6818,4.6929,4.6988,4.7074,4.7173,4.7323,4.73,4.7364,4.7383,4.7462,4.7601,4.7426,4.7429,4.7455,4.7787,4.7805,4.7831,4.7596,4.7601,4.7605,4.7779,0,4.6456,4.6661,4.6691,4.6873,4.6973,4.6973,4.7075,4.7152,4.7193,4.7285,4.7331,4.7437,4.7399,4.7438,4.7516,4.7567,4.7668,4.7555,4.7688,4.7693,4.7662,4.7862,4.7881,4.8041,4.7802,4.7806,4.7809,0,4.6673,4.6765,4.6956,4.7049,4.7093,4.7184,4.7288,4.7377,4.7464,4.7489,4.7562,4.7572,4.7694,4.763,4.7799,4.7722,4.7779,4.7813,4.782,4.7831,4.7757,4.7878,4.8093,4.8117,4.7845,4.7842,4.784,0,4.6783,4.6955,4.7091,4.7138,4.725,4.7314,4.7364,4.7448,4.7513,4.7606,4.7648,4.7754,4.7812,4.7894,4.7932,4.7882,4.8099,4.8038,4.8123,4.8122,4.8167,4.8163,4.8393,4.8207,4.8206,4.8206,4.8205,0,4.6961,4.7078,4.7142,4.7226,4.7358,4.7392,4.7522,4.757,4.7645,4.7739,4.7746,4.7834,4.7881,4.7976,4.8008,4.8143,4.8169,4.8193,4.8199,4.8191,4.8188,4.8227,4.8216,4.8212,4.8211,4.821,4.8209,0,4.7105,4.7153,4.7302,4.7397,4.7423,4.7516,4.7598,4.768,4.7722,4.7841,4.7871,4.7937,4.805,4.8097,4.8236,4.8257,4.8412,4.8411,4.8382,4.8383,4.8465,4.8456,4.8726,4.8763,4.8555,4.8557,4.8558,0,4.7214,4.7304,4.7409,4.7473,4.7525,4.7627,4.7693,4.7732,4.7802,4.791,4.7979,4.8092,4.8184,4.8366,4.8426,4.8533,4.8534,4.8621,4.855,4.8539,4.8533,4.8527,4.8536,4.8633,4.8635,4.8637,4.8639,0,4.7403,4.7423,4.7518,4.7624,4.7703,4.7788,4.787,4.7922,4.7973,4.8052,4.8167,4.8239,4.8381,4.8493,4.8604,4.8657,4.8657,4.8661,4.8686,4.8677,4.8656,4.8668,4.8415,4.8654,4.8652,4.8651,4.8651,4.865,4.7533,4.7613,4.7699,4.7806,4.7872,4.795,4.8031,4.8084,4.8181,4.8299,4.8317,4.844,4.8528,4.8676,4.8734,4.8832,4.881,4.8846,4.8855,4.8863,4.8868,4.8643,4.8852,4.8852,4.8852,4.8851,4.8851,0,4.7721,4.7777,4.7875,4.799,4.8074,4.8068,4.8159,4.823,4.8339,4.842,4.8511,4.8644,4.8754,4.8824,4.8935,4.9,4.9003,4.9028,4.9022,4.9035,4.8882,4.8848,4.9024,4.9024,4.9024,4.9024,4.9024,4.9023,4.7828,4.7963,4.7993,4.8162,4.8218,4.8338,4.8391,4.8463,4.8528,4.8676,4.8767,4.8812,4.889,4.9007,4.9107,4.9125,4.9165,4.9191,4.9208,4.9063,4.9045,4.9028,4.8996,4.92,4.92,4.9352,4.9354,4.9355]},{"header":{"parameterUnit":"m.s-1","parameterCategory":1,"la1":30.2991,"la2":30.254,"lo1":-89.0895,"lo2":-89.0444,"dy":0.0017,"dx":0.0017,"nx":28,"ny":28,"refTime":"2024-06-29T09:00:00:Z","depth":0,"parameterNumber":3,"parameterNumberName":"V-component_of_WINDS"},"data":[0,0,0,0,0,0,0,0,0,0,0,0,0,0,0,0,0,0,0,0,0,0,0,0,0,0,0,0,0,0,0,0,0,0,0,0,0,0,0,0,0,0,0,0,0,0,0,0,0,0,0,0,0,0,0,0,0,0,3.7107,3.7109,0,3.7312,3.7314,3.7316,3.7308,3.7305,3.7303,3.73,3.751,3.7518,3.7527,0,0,0,0,0,0,0,0,0,0,0,0,0,3.671,3.6717,3.7107,3.7109,3.7112,3.7311,3.7314,3.7317,3.7309,3.7305,3.7302,3.7299,3.7508,3.7517,3.7527,0,0,0,0,0,0,0,0,0,0,0,0,0,3.6895,3.672,3.7106,3.7132,3.7136,3.7311,3.7314,3.7318,3.731,3.7305,3.7301,3.7297,3.7504,3.7516,3.7529,3.7691,0,0,3.7567,3.7572,0,0,0,0,0,0,0,0,3.6885,3.691,3.7126,3.713,3.7136,3.728,3.7251,3.7443,3.7311,3.7244,3.73,3.7295,3.7437,3.7455,3.7503,3.7701,3.771,3.7568,3.7575,3.7581,3.7584,0,0,0,0,0,0,0,3.6872,3.6901,3.7188,3.7129,3.7135,3.7134,3.7155,3.7288,3.7362,3.7249,3.7249,3.7273,3.7439,3.7491,3.7508,3.7713,3.7567,3.7578,3.7586,3.7591,3.8056,3.8061,0,0,0,0,0,0,3.6854,3.689,3.7181,3.7194,3.6997,3.7144,3.7168,3.7238,3.7361,3.7375,3.7277,3.7272,3.7472,3.7493,3.7515,3.7714,3.758,3.7592,3.7599,3.8051,3.8057,3.8062,0,0,0,0,0,0,3.6845,3.688,3.7173,3.7042,3.708,3.7156,3.7234,3.7244,3.7296,3.7382,3.7395,3.7316,3.7469,3.7498,3.7648,3.7721,3.7598,3.7609,3.8045,3.8053,3.806,3.8112,0,0,0,0,0,0,3.6834,3.6877,3.6939,3.7044,3.7087,3.7302,3.7238,3.7251,3.7317,3.7313,3.7422,3.7436,3.7468,3.7629,3.766,3.7736,3.7619,3.8039,3.8049,3.8057,3.8104,3.812,3.8134,0,0,0,0,0,3.682,3.6945,3.6942,3.6977,3.7166,3.7306,3.7331,3.7365,3.7323,3.7386,3.7442,3.7432,3.7708,3.7645,3.7679,3.776,3.8035,3.8046,3.8057,3.8097,3.8117,3.8134,0,0,0,0,0,0,3.6847,3.6959,3.6957,3.712,3.7204,3.7304,3.7385,3.7385,3.7482,3.7474,3.7513,3.7538,3.7688,3.7739,3.7666,3.7924,3.7866,3.7885,3.7885,3.7904,3.7919,3.7903,3.7629,0,0,0,0,0,3.6872,3.6976,3.7069,3.7204,3.7246,3.7309,3.7371,3.7391,3.7479,3.7514,3.758,3.7666,3.7772,3.7841,3.7944,3.8112,3.8135,3.8184,3.8199,3.8211,3.8226,3.832,3.8342,3.8099,3.8099,3.8098,0,0,3.6924,3.6999,3.7062,3.7211,3.7278,3.7386,3.7338,3.7454,3.7534,3.7531,3.7677,3.7729,3.7828,3.7987,3.8061,3.8034,3.8299,3.8225,3.8234,3.8243,3.8333,3.8356,3.8377,3.8106,3.8105,3.8104,0,0,3.7075,3.7142,3.7262,3.733,3.7432,3.7473,3.7502,3.7604,3.7638,3.7785,3.7785,3.7882,3.8063,3.8134,3.8193,3.8372,3.8367,3.8405,3.8483,3.8573,3.8592,3.861,3.8673,3.8696,3.842,3.842,3.842,0,3.7127,3.7289,3.7324,3.744,3.7506,3.7509,3.7631,3.7696,3.7826,3.7872,3.784,3.8069,3.8136,3.8312,3.8356,3.8404,3.8439,3.8392,3.8587,3.8604,3.8621,3.8682,3.8706,3.8424,3.8423,3.8423,3.8423,0,3.7348,3.7461,3.7546,3.7671,3.7747,3.7866,3.7919,3.7991,3.8005,3.8049,3.8199,3.828,3.8399,3.8442,3.8456,3.8621,3.8602,3.8578,3.8521,3.8647,3.8706,3.8729,3.8429,3.8428,3.8427,3.8426,0,0,3.752,3.7665,3.7695,3.7753,3.7866,3.7954,3.8074,3.819,3.8251,3.8342,3.8443,3.8597,3.8577,3.8644,3.8667,3.8746,3.8883,3.8713,3.8716,3.8742,3.907,3.9086,3.9113,3.888,3.8885,3.8889,3.9061,0,3.7683,3.7894,3.7929,3.8115,3.8219,3.8224,3.8329,3.841,3.8455,3.855,3.86,3.8709,3.8674,3.8715,3.8793,3.8849,3.8949,3.8837,3.8975,3.898,3.895,3.9143,3.9161,3.932,3.9084,3.9088,3.9091,0,3.79,3.7996,3.8192,3.8292,3.8337,3.843,3.854,3.8631,3.8724,3.8751,3.8827,3.8841,3.8965,3.8903,3.9075,3.8998,3.9057,3.9093,3.91,3.9114,3.9042,3.9162,3.9372,3.9396,3.9127,3.9125,3.9122,0,3.8005,3.8184,3.8324,3.8373,3.8494,3.8559,3.8612,3.8701,3.8769,3.8865,3.891,3.9019,3.9079,3.9164,3.9207,3.9157,3.9377,3.9318,3.9403,3.9402,3.9448,3.9445,3.967,3.9487,3.9486,3.9486,3.9485,0,3.8182,3.8302,3.8373,3.846,3.8594,3.8634,3.8766,3.8818,3.8897,3.8994,3.9005,3.9096,3.9147,3.9246,3.928,3.9418,3.9445,3.9471,3.9478,3.947,3.9466,3.9508,3.9498,3.9492,3.9491,3.949,3.9489,0,3.8322,3.8375,3.8529,3.8631,3.8659,3.8754,3.8841,3.8925,3.8971,3.9093,3.9124,3.9195,3.9312,3.9363,3.9507,3.953,3.9688,3.9687,3.9656,3.9659,3.9741,3.9733,4.0001,4.0038,3.983,3.9832,3.9834,0,3.8432,3.8524,3.8636,3.8702,3.8757,3.8863,3.8932,3.8976,3.9048,3.9161,3.9232,3.9349,3.9444,3.963,3.9695,3.9805,3.9808,3.9894,3.9824,3.9813,3.9809,3.9803,3.9812,3.9907,3.9909,3.991,3.9912,0,3.862,3.8642,3.8741,3.8851,3.8934,3.9022,3.9109,3.9162,3.9219,3.93,3.9419,3.9494,3.9641,3.9757,3.9871,3.9926,3.9929,3.9933,3.9959,3.9951,3.9929,3.9942,3.9691,3.9927,3.9925,3.9924,3.9923,3.9923,3.8748,3.883,3.8922,3.9033,3.9103,3.9184,3.9269,3.9325,3.9425,3.9548,3.9568,3.9695,3.9787,3.9941,4.0,4.0101,4.008,4.0117,4.0126,4.0135,4.014,3.9913,4.0122,4.0122,4.0121,4.0121,4.0121,0,3.8936,3.8996,3.9098,3.9219,3.9307,3.9302,3.9398,3.9472,3.9584,3.9669,3.9763,3.99,4.0013,4.0087,4.0202,4.0268,4.0272,4.0297,4.0292,4.0305,4.0152,4.0118,4.0291,4.0291,4.0291,4.0291,4.0291,4.0291,3.9045,3.9184,3.9217,3.9392,3.9451,3.9576,3.9631,3.9706,3.9774,3.9927,4.0021,4.0069,4.015,4.027,4.0374,4.0393,4.0434,4.046,4.0477,4.0333,4.0315,4.0298,4.0267,4.0468,4.0469,4.0622,4.0623,4.0624]}]]